Flag for Switzerland Weather past 2 weeks in Küsnacht, Zurich, Switzerland

Now
77 °F

Mild.


Feels Like: 78 °F
Forecast: 54 / 73 °F
Wind: 2 mph from Southeast

Location: Zurich Town / Ville.

Current Time: Jul 25, 2014 at 1:53:09 PM

Latest Report: Jul 25, 2014 at 1:00 PM


Visibility: N/A

Pressure: 29.86 "Hg

Humidity: 57%

Dew point: 60 °F

Location of KüsnachtLocation

Historic Weather in Küsnacht — Graph

°F

Küsnacht temperature yesterday

Maximum temperature yesterday: 75 °F (at 3:00 PM)
Minimum temperature yesterday: 59 °F (at 6:00 AM)
Average temperature yesterday: 66 °F

Past Weeks' High & Low Weather Summary

 TemperatureHumidityPressure
High87 °F (Jul 19, 6:00 PM)99% (Jul 23, 1:00 AM)30.19 "Hg (Jul 23, 1:00 AM)
Low52 °F (Jul 10, 12:00 PM)25% (Jul 18, 3:00 PM)29.78 "Hg (Jul 20, 3:00 AM)
Average65 °F76%29.97 "Hg
* Reported Jul 10 12:00 Noon — Jul 25 12:00 Noon, Küsnacht, Weather by CustomWeather, © 2014

Note: Actual official high and low records may vary slightly from our data, if they occured in-between our weather recording intervals... More about our weather records

Advertising

Küsnacht weather history for previous 24 hours

 ConditionsComfort  
Time TempWeatherWind HumidityBarometerVisibility
12:00 PM
Jul 25
72 °FMild.3 mph64%29.89 "HgN/A
11:00 AM69 °FMild.3 mph66%29.91 "HgN/A
10:00 AM67 °FMild.3 mph72%29.92 "HgN/A
9:00 AM63 °FMild.2 mph83%29.93 "HgN/A
8:00 AM61 °FSunny.2 mph87%29.94 "HgN/A
7:00 AM59 °FCool.2 mph91%29.94 "HgN/A
6:00 AM59 °FCool.1 mph91%29.93 "HgN/A
5:00 AM59 °FCool.1 mph92%29.93 "HgN/A
4:00 AM59 °FCool.No wind91%29.93 "HgN/A
3:00 AM60 °FCool.1 mph90%29.93 "HgN/A
2:00 AM60 °FCool.No wind87%29.93 "HgN/A
1:00 AM61 °FCool.1 mph85%29.93 "HgN/A
12:00 AM62 °FCool.1 mph83%29.93 "HgN/A
11:00 PM
Jul 24
63 °FMild.2 mph79%29.92 "HgN/A
10:00 PM63 °FMild.1 mph79%29.91 "HgN/A
9:00 PM66 °FMild.2 mph73%29.88 "HgN/A
8:00 PM71 °FScattered clouds.5 mph60%29.85 "HgN/A
7:00 PM71 °FMild.2 mph53%29.84 "HgN/A
6:00 PM71 °FMild.5 mph51%29.85 "HgN/A
5:00 PM74 °FMild.3 mph46%29.83 "HgN/A
4:00 PM72 °FMild.6 mph56%29.85 "HgN/A
3:00 PM75 °FMild.2 mph50%29.84 "HgN/A
2:00 PM74 °FPartly sunny.3 mph56%29.85 "HgN/A
1:00 PM72 °FMild.3 mph56%29.86 "HgN/A
Weather by CustomWeather, © 2014

See weather overviewHow to use our weather pages